Flag for Germany Weather past 2 weeks in Mühlhausen/Thüringen, Thuringia, Germany

Now
69 °F

Scattered clouds.


Feels Like: 69 °F
Forecast: 56 / 80 °F
Wind: 3 mph from Southwest

Location: Erfurt-Bindersleben

Current Time: Aug 4, 2015 at 8:12:19 AM

Latest Report: Aug 4, 2015 at 7:00 AM


Visibility: 37 mi

Pressure: 29.94 "Hg

Humidity: 63%

Dew point: 56 °F

Location of Mühlhausen/ThüringenLocation

Historic Weather in Mühlhausen/Thüringen — Graph

°F

Mühlhausen/Thüringen temperature yesterday

Maximum temperature yesterday: 87 °F (at 4:00 PM)
Minimum temperature yesterday: 57 °F (at 7:00 AM)
Average temperature yesterday: 74 °F

Past Weeks' High & Low Weather Summary

 TemperatureHumidityPressure
High87 °F (Jul 22, 5:00 PM)97% (Jul 31, 7:00 AM)30.14 "Hg (Jul 31, 7:00 AM)
Low46 °F (Jul 31, 4:00 AM)26% (Aug 2, 4:00 PM)29.60 "Hg (Jul 25, 6:00 AM)
Average66 °F63%29.90 "Hg
* Reported Jul 20 7:00 AM — Aug 4 7:00 AM, Mühlhausen/Thüringen, Weather by CustomWeather, © 2015

Note: Actual official high and low records may vary slightly from our data, if they occured in-between our weather recording intervals... More about our weather records

Advertising

Mühlhausen/Thüringen weather history for previous 24 hours

 ConditionsComfort  
Time TempWeatherWind HumidityBarometerVisibility
7:00 AM
Tue, Aug 4
69 °FScattered clouds.3 mph63%29.94 "Hg37 mi
6:00 AM69 °FScattered clouds.5 mph63%29.93 "Hg28 mi
5:00 AM69 °FPassing clouds.5 mph62%29.95 "Hg22 mi
4:00 AM70 °FPassing clouds.5 mph61%29.96 "Hg25 mi
3:00 AM71 °FPassing clouds.6 mph58%29.97 "Hg28 mi
2:00 AM72 °FPassing clouds.6 mph54%29.97 "Hg31 mi
1:00 AM72 °FPassing clouds.5 mph54%29.97 "Hg31 mi
11:00 PM
Mon, Aug 3
75 °FPassing clouds.3 mph50%29.98 "Hg31 mi
10:00 PM77 °FPassing clouds.3 mph46%29.97 "Hg37 mi
9:00 PM79 °FPassing clouds.2 mph43%29.96 "Hg37 mi
8:00 PM83 °FScattered clouds.3 mph36%29.95 "Hg43 mi
7:00 PM85 °FPassing clouds.2 mph30%29.95 "Hg43 mi
6:00 PM87 °FPassing clouds.3 mph28%29.96 "Hg43 mi
5:00 PM86 °FPassing clouds.3 mph28%29.98 "Hg43 mi
4:00 PM87 °FPassing clouds.3 mph28%29.98 "Hg43 mi
3:00 PM86 °FPassing clouds.3 mph29%30.00 "Hg43 mi
2:00 PM84 °FPassing clouds.5 mph29%30.01 "Hg37 mi
1:00 PM83 °FPassing clouds.2 mph31%30.03 "Hg37 mi
12:00 PM81 °FPassing clouds.2 mph36%30.05 "Hg37 mi
11:00 AM77 °FPassing clouds.2 mph45%30.07 "Hg37 mi
10:00 AM73 °FScattered clouds.2 mph52%30.08 "Hg31 mi
9:00 AM68 °FScattered clouds.1 mph54%30.08 "Hg31 mi
8:00 AM62 °FScattered clouds.1 mph68%30.10 "Hg31 mi
Weather by CustomWeather, © 2015

See weather overviewHow to use our weather pages